Powrót do katalogu

STARLINK-6167

AktywnyŁącznośćVLEO
NORAD 57126·PAYLOAD·🇺🇸 United States

Wystrzelony Jun 23, 2023 z Cape Canaveral Space Force Station

Loading…

Następne Przeloty (najbliższe 24 godziny)

TLE

ŚwieżeSource: CelesTrak SupGP

Epoka: Sep 14, 2026, 21:59 UTC

1 57126C 23090AB  26257.91645833  .00002748  00000+0  99538-4 0  2571
2 57126  43.0034 293.3096 0001840 287.8406 203.2982 15.27570061    18

Śledź STARLINK-6167 w czasie rzeczywistym z AllMySat

Download on the App Store